Location: Gleizolles
(44.4833°N, 6.7667°E)
Time: 23:09:44
(UTC+00:00)

Transit 2A - Visible Passes

Search period start: 25 June 2024 00:00
Search period end: 05 July 2024 00:00
Orbit: 592 x 959 km, 66.7° (Epoch: 25 June)

Date Brightness Start Highest point End Pass type
(mag) Time Alt. Az. Time Alt. Az. Time Alt. Az.
25 Jun 8.1 00:38:05 10° WNW 00:41:41 16° WSW 00:42:08 16° WSW visible
25 Jun 8.4 20:35:29 10° N 20:39:48 19° NE 20:44:13 10° E visible
25 Jun 6.6 22:17:49 10° NNW 22:24:02 71° NE 22:27:09 32° SE visible
26 Jun 7.7 00:01:57 10° WNW 00:06:43 23° WSW 00:07:32 22° WSW visible
26 Jun 8.6 20:00:34 10° N 20:04:08 16° NNE 20:07:47 10° ENE visible
26 Jun 6.9 21:42:38 10° NNW 21:48:42 53° NE 21:52:36 23° ESE visible
26 Jun 7.3 23:26:13 10° NW 23:31:42 33° WSW 23:33:00 30° SW visible
27 Jun 7.4 21:07:30 10° NNW 21:13:18 40° NE 21:18:06 15° ESE visible
27 Jun 7.0 22:50:40 10° NW 22:56:36 46° WSW 22:58:30 36° SSW visible
28 Jun 7.7 20:32:25 10° NNW 20:37:49 31° NE 20:43:22 10° ESE visible
28 Jun 6.6 22:15:16 10° NW 22:21:26 64° WSW 22:24:03 36° S visible
29 Jun 8.6 00:02:16 10° W 00:03:31 11° W 00:04:27 10° WSW visible
29 Jun 8.0 19:57:22 10° NNW 20:02:17 24° NE 20:07:19 10° E visible
29 Jun 6.4 21:39:57 10° NNW 21:46:14 87° WSW 21:49:39 29° SSE visible
29 Jun 8.2 23:24:54 10° WNW 23:28:36 16° WSW 23:30:03 15° WSW visible
30 Jun 6.6 21:04:42 10° NNW 21:10:57 70° NE 21:15:17 21° SE visible
30 Jun 7.9 22:48:48 10° NW 22:53:38 24° WSW 22:55:41 20° SW visible
01 Jul 6.9 20:29:30 10° NNW 20:35:35 52° NE 20:40:58 14° SE visible
01 Jul 7.5 22:13:03 10° NW 22:18:36 33° WSW 22:21:22 23° SSW visible
02 Jul 7.3 19:54:22 10° NNW 20:00:10 39° NE 20:06:05 10° ESE visible
02 Jul 7.1 21:37:31 10° NW 21:43:30 47° WSW 21:47:06 23° S visible
03 Jul 6.7 21:02:06 10° NW 21:08:19 65° WSW 21:12:52 20° SSE visible
03 Jul 8.7 22:48:49 10° W 22:50:24 11° W 22:51:58 10° WSW visible
04 Jul 6.5 20:26:47 10° NNW 20:33:05 89° WSW 20:38:41 14° SSE visible
04 Jul 8.5 22:11:40 10° WNW 22:15:29 17° WSW 22:19:06 11° SW visible
